Welcome to our Virtual Airline
Sign-in:

Flight MFC51961

  • Submitted By: Karl-Heinz Klotz
  • Departure Airport: Shishmaref (PASH)
  • Arrival Airport: Port Clarence CGS (KPC)
  • Aircraft: PIPER J-3 (N004MM-SK)
  • Flight Time: 02.22.05
  • Date Submitted: 19/05/25
  • Route: STOP-OVER AT 1. TIN CITY LRRS (PATC), 2. BREVIG MISSION (KTS)
  • Status: Accepted
Flight Details
Gross Revenue:
(6 load / $ 132.00 per unit
$ 792.00
Fuel Cost:
(85.729 fuel used @ 5.1 / unit)
$ 437.22

Additional Log Information:

View Log

FS[17:54] ----- Flight Opened -----
FS[17:54] Cigar Box - 1.1.4.0
FS[17:54] FS: Prepar3D V4
FS[17:54] FSUIPC: v5,15
FS[17:54] Flight Number: MFC51961
FS[17:54] FS Aircraft: Islander 08
FS[17:54] FS Model: BN2B20
FS[17:54] FS Type: BRITTENNORMAN
FS[17:54] Departure: PASH
FS[17:54] Arrival: KPC
FS[17:54] Flight Level: 2500
FS[17:54] Flight Type: H
FS[17:54] Passengers: 6
FS[17:54] FOB: 260 lbs
FS[17:54] Gate: n/a
FS[17:54] NOTE: Parking Brake Ignored
FS[17:54] Crash Detection: Disabled
FS[17:54] Engines: 2 Piston
FS[17:54] NOTE: Boarding has started
FS[17:54] Autopilot: Engaged
FS[17:54] AGL: 4 ft
FS[17:54] AMSL: 13 ft
FS[17:54] Engine 1: Started
FS[17:54] Engine 2: Started
FS[17:54] Main Door Closed
FS[17:54] Flaps: Position 1
FS[17:54] COM1: 128.30
FS[17:54] COM2: 127.80
FS[17:54] Transponder: 1200
FS[17:54] NAV1: 113.70
FS[17:54] NAV2: 113.70
FS[17:54] ADF1: 991.0
FS[17:54] ADF2: 240.0
FS[17:54] Navigation Mode: NAV
FS[17:54] NOTE: Taxi started
FS[17:54] Flaps: Position 0
FS[17:55] NOTE: ----- TAKE OFF -----
FS[17:55] GS: 85 knots
FS[17:55] TAS: 86 knots
FS[17:55] IAS: 87 knots
FS[17:55] VS: 9 fpm
FS[17:55] FOB: 259 lbs
FS[17:55] Heading: 243°
FS[17:55] Pitch: 1°
FS[17:55] Bank: 0°
FS[17:55] Aircraft Weight: 5471,73 lbs
FS[17:55] Nearest Airport: PASH
FS[17:55] Distance: 0,18 miles
FS[17:55] Runway: ???
FS[17:55] Ground Surface: Asphalt
FS[17:55] Ground Condition: Normal
FS[17:55] NOTE: Weather Report
FS[17:55] Wind Heading: 350°
FS[17:55] Wind Speed: 0 knots
FS[17:55] OAT: 14° C
FS[17:55] TAT: 15° C
FS[17:55] Precipitation: None
FS[17:55] Dew Point: 4° C
FS[17:55] Visibility: 62 miles
FS[17:55] METAR: PASH 251203Z AUTO 12003KT 1/4SM FG OVC002 00/M01 A3015 RMK AO2 FZRANO
FS[17:55] NOTE: Climb started
FS[17:55] View Mode: Virtual Cockpit
FS[18:19] FS: Paused
FS[18:19] FS: Unpaused
FS[19:22] Flaps: Position 1
FS[19:22] GS: 89 knots
FS[19:22] TAS: 89 knots
FS[19:22] IAS: 88 knots
FS[19:22] VS: 2 fpm
FS[19:22] Flaps: Position 2
FS[19:22] GS: 60 knots
FS[19:22] TAS: 62 knots
FS[19:22] IAS: 61 knots
FS[19:22] VS: -415 fpm
FS[19:23] NOTE: ----- LANDED -----
FS[19:23] Landing Rate: -48,44 fpm
FS[19:23] GS: 52 knots
FS[19:23] TAS: 53 knots
FS[19:23] IAS: 53 knots
FS[19:23] VS: -48 fpm
FS[19:23] FOB: 135 lbs
FS[19:23] Heading: 168°
FS[19:23] Pitch: 4°
FS[19:23] Bank: 0°
FS[19:23] Aircraft Weight: 5347,10 lbs
FS[19:23] Nearest Airport: PATC
FS[19:23] Distance: 0,49 miles
FS[19:23] Runway: 16 - PATC
FS[19:23] Ground Surface: Gravel
FS[19:23] Ground Condition: Normal
FS[19:23] NOTE: Weather Report
FS[19:23] Wind Heading: 351°
FS[19:23] Wind Speed: 0 knots
FS[19:23] OAT: 14° C
FS[19:23] TAT: 15° C
FS[19:23] Precipitation: None
FS[19:23] Dew Point: 4° C
FS[19:23] Visibility: 62 miles
FS[19:23] METAR: KPCD 251215Z AUTO 00000KT 10SM CLR 23/18 A3001 RMK AO2 T02280183KPCM 251215Z AUTO 00000KT 10SM CLR 24/21 A3014 RMK AO2KPCW 251215Z AUTO 21008KT 10SM CLR 23/18 A2997 RMK AO2KPCZ 251215Z AUTO 00000KT 1/4SM FG OVC003 15/15 A2980 RMK AO2 T01540150
FS[19:23] View Mode: Virtual Cockpit
FS[19:24] Flaps: Position 1
FS[19:24] Flaps: Position 0
FS[19:24] NOTE: Taxi started
FS[19:26] View Mode: Spot Plane
FS[19:41] Recovery: Flight Saved
FS[20:02] Flaps: Position 1
FS[20:02] GS: 85 knots
FS[20:02] TAS: 86 knots
FS[20:02] IAS: 86 knots
FS[20:02] VS: -554 fpm
FS[20:02] Flaps: Position 2
FS[20:02] GS: 71 knots
FS[20:02] TAS: 72 knots
FS[20:02] IAS: 71 knots
FS[20:02] VS: -585 fpm
FS[20:03] NOTE: ----- LANDED -----
FS[20:03] Landing Rate: -84,58 fpm
FS[20:03] GS: 48 knots
FS[20:03] TAS: 49 knots
FS[20:03] IAS: 49 knots
FS[20:03] VS: -84 fpm
FS[20:03] FOB: 86 lbs
FS[20:03] Heading: 124°
FS[20:03] Pitch: 4°
FS[20:03] Bank: 0°
FS[20:03] Aircraft Weight: 5298,30 lbs
FS[20:03] Nearest Airport: KTS
FS[20:03] Distance: 0,18 miles
FS[20:03] Runway: 11 - KTS
FS[20:03] Ground Surface: Gravel
FS[20:03] Ground Condition: Normal
FS[20:03] NOTE: Weather Report
FS[20:03] Wind Heading: 350°
FS[20:03] Wind Speed: 0 knots
FS[20:03] OAT: 14° C
FS[20:03] TAT: 15° C
FS[20:03] Precipitation: None
FS[20:03] Dew Point: 4° C
FS[20:03] Visibility: 62 miles
FS[20:03] METAR: KPCD 251215Z AUTO 00000KT 10SM CLR 23/18 A3001 RMK AO2 T02280183KPCM 251215Z AUTO 00000KT 10SM CLR 24/21 A3014 RMK AO2KPCW 251215Z AUTO 21008KT 10SM CLR 23/18 A2997 RMK AO2KPCZ 251215Z AUTO 00000KT 1/4SM FG OVC003 15/15 A2980 RMK AO2 T01540150
FS[20:03] View Mode: Virtual Cockpit
FS[20:03] Flaps: Position 1
FS[20:04] Flaps: Position 0
FS[20:05] View Mode: Virtual Cockpit
FS[20:14] Flaps: Position 1
FS[20:14] GS: 87 knots
FS[20:14] TAS: 87 knots
FS[20:14] IAS: 87 knots
FS[20:14] VS: -146 fpm
FS[20:15] Flaps: Position 2
FS[20:15] GS: 68 knots
FS[20:15] TAS: 68 knots
FS[20:15] IAS: 68 knots
FS[20:15] VS: -513 fpm
FS[20:16] NOTE: ----- LANDED -----
FS[20:16] Landing Rate: -25,38 fpm
FS[20:16] GS: 54 knots
FS[20:16] TAS: 54 knots
FS[20:16] IAS: 54 knots
FS[20:16] VS: -25 fpm
FS[20:16] FOB: 72 lbs
FS[20:16] Heading: 166°
FS[20:16] Pitch: 3°
FS[20:16] Bank: 0°
FS[20:16] Aircraft Weight: 5284,44 lbs
FS[20:16] Nearest Airport: KPC
FS[20:16] Distance: 0,65 miles
FS[20:16] Runway: 16 - KPC
FS[20:16] Ground Surface: Long Grass
FS[20:16] Ground Condition: Normal
FS[20:16] NOTE: Weather Report
FS[20:16] Wind Heading: 350°
FS[20:16] Wind Speed: 0 knots
FS[20:16] OAT: 14° C
FS[20:16] TAT: 15° C
FS[20:16] Precipitation: None
FS[20:16] Dew Point: 4° C
FS[20:16] Visibility: 62 miles
FS[20:16] METAR: KPCD 251215Z AUTO 00000KT 10SM CLR 23/18 A3001 RMK AO2 T02280183KPCM 251215Z AUTO 00000KT 10SM CLR 24/21 A3014 RMK AO2KPCW 251215Z AUTO 21008KT 10SM CLR 23/18 A2997 RMK AO2KPCZ 251215Z AUTO 00000KT 1/4SM FG OVC003 15/15 A2980 RMK AO2 T01540150
FS[20:16] View Mode: Virtual Cockpit
FS[20:16] Flaps: Position 1
FS[20:16] Flaps: Position 0
FS[20:17] Gate: n/a
FS[20:17] NOTE: Flight Completed
FS[20:17] FS Aircraft: Islander 08
FS[20:17] FS Model: BN2B20
FS[20:17] FS Type: BRITTENNORMAN
FS[20:17] FOB: 71 lbs
FS[20:17] Fuel Used: 189 lbs
FS[20:17] Flight Time: 02:22:05
FS[20:17] Flight Time (Dawn): 00:00:00
FS[20:17] Flight Time (Day): 02:22:05
FS[20:17] Flight Time (Dusk): 00:00:00
FS[20:17] Flight Time (Night): 00:00:00
FS[20:17] Total Landings: 3
FS[20:17] MaxSim Rate: 0x
FS[20:17] Cigar Box - 1.1.4.0
FS[20:17] ----- Flight Closed -----

Route Map